date,time,SUV Intensity [MED/Hr],UV Index,Daily total [MED],Since Last [MED]
10/11/2022,00:02:30,0.000,0.0,0.0,0.0
10/11/2022,00:03:30,-0.000,0.0,0.0,0.0
10/11/2022,00:04:29,0.000,0.0,0.0,0.0
10/11/2022,00:05:30,-0.000,0.0,0.0,0.0
10/11/2022,00:06:30,0.000,0.0,0.0,0.0
10/11/2022,00:07:30,-0.001,0.0,0.0,0.0
10/11/2022,00:08:29,0.000,0.0,0.0,0.0
10/11/2022,00:09:30,-0.001,0.0,0.0,0.0
10/11/2022,00:10:30,-0.001,0.0,0.0,0.0
10/11/2022,00:11:29,0.000,0.0,0.0,0.0
10/11/2022,00:12:29,0.000,0.0,0.0,0.0
10/11/2022,00:13:29,0.000,0.0,0.0,0.0
10/11/2022,00:14:29,0.000,0.0,0.0,0.0
10/11/2022,00:15:30,-0.001,0.0,0.0,0.0
10/11/2022,00:16:29,-0.001,0.0,0.0,0.0
10/11/2022,00:17:29,0.000,0.0,0.0,0.0
10/11/2022,00:18:30,0.000,0.0,0.0,0.0
10/11/2022,00:19:29,-0.000,0.0,0.0,0.0
10/11/2022,00:20:29,0.001,0.0,0.0,0.0
10/11/2022,00:21:30,0.000,0.0,0.0,0.0
10/11/2022,00:22:30,0.000,0.0,0.0,0.0
10/11/2022,00:23:30,0.000,0.0,0.0,0.0
10/11/2022,00:24:30,0.000,0.0,0.0,0.0
10/11/2022,00:25:30,0.000,0.0,0.0,0.0
10/11/2022,00:26:30,0.000,0.0,0.0,0.0
10/11/2022,00:27:31,-0.000,0.0,0.0,0.0
10/11/2022,00:28:29,0.000,0.0,0.0,0.0
10/11/2022,00:29:30,0.000,0.0,0.0,0.0
10/11/2022,00:30:29,0.000,0.0,0.0,0.0
10/11/2022,00:31:30,-0.000,0.0,0.0,0.0
10/11/2022,00:32:29,0.000,0.0,0.0,0.0
10/11/2022,00:33:30,-0.001,0.0,0.0,0.0
10/11/2022,00:34:30,-0.000,0.0,0.0,0.0
10/11/2022,00:35:30,0.001,0.0,0.0,0.0
10/11/2022,00:36:30,0.001,0.0,0.0,0.0
10/11/2022,00:37:30,0.000,0.0,0.0,0.0
10/11/2022,00:38:29,-0.000,0.0,0.0,0.0
10/11/2022,00:39:30,-0.001,0.0,0.0,0.0
10/11/2022,00:40:30,-0.001,0.0,0.0,0.0
10/11/2022,00:41:30,0.000,0.0,0.0,0.0
10/11/2022,00:42:29,0.000,0.0,0.0,0.0
10/11/2022,00:43:30,0.000,0.0,0.0,0.0
10/11/2022,00:44:30,-0.001,0.0,0.0,0.0
10/11/2022,00:45:30,0.000,0.0,0.0,0.0
10/11/2022,00:46:30,0.000,0.0,0.0,0.0
10/11/2022,00:47:29,0.001,0.0,0.0,0.0
10/11/2022,00:48:30,-0.001,0.0,0.0,0.0
10/11/2022,00:49:30,0.000,0.0,0.0,0.0
10/11/2022,00:50:30,0.000,0.0,0.0,0.0
10/11/2022,00:51:29,0.001,0.0,0.0,0.0
10/11/2022,00:52:29,0.000,0.0,0.0,0.0
10/11/2022,00:53:30,-0.001,0.0,0.0,0.0
10/11/2022,00:54:30,0.000,0.0,0.0,0.0
10/11/2022,00:55:30,0.000,0.0,0.0,0.0
10/11/2022,00:56:30,0.000,0.0,0.0,0.0
10/11/2022,00:57:30,0.001,0.0,0.0,0.0
10/11/2022,00:58:29,0.000,0.0,0.0,0.0
10/11/2022,00:59:30,0.000,0.0,0.0,0.0
10/11/2022,01:00:29,0.000,0.0,0.0,0.0
10/11/2022,01:01:30,-0.000,0.0,0.0,0.0
10/11/2022,01:02:30,0.000,0.0,0.0,0.0
10/11/2022,01:03:29,0.000,0.0,0.0,0.0
10/11/2022,01:04:29,0.000,0.0,0.0,0.0
10/11/2022,01:05:29,0.000,0.0,0.0,0.0
10/11/2022,01:06:29,0.000,0.0,0.0,0.0
10/11/2022,01:07:29,-0.000,0.0,0.0,0.0
10/11/2022,01:08:29,0.000,0.0,0.0,0.0
10/11/2022,01:09:29,0.001,0.0,0.0,0.0
10/11/2022,01:10:29,0.000,0.0,0.0,0.0
10/11/2022,01:11:30,0.000,0.0,0.0,0.0
10/11/2022,01:12:29,0.001,0.0,0.0,0.0
10/11/2022,01:13:30,-0.000,0.0,0.0,0.0
10/11/2022,01:14:30,0.000,0.0,0.0,0.0
10/11/2022,01:15:30,0.001,0.0,0.0,0.0
10/11/2022,01:16:30,-0.000,0.0,0.0,0.0
10/11/2022,01:17:30,-0.000,0.0,0.0,0.0
10/11/2022,01:18:30,0.001,0.0,0.0,0.0
10/11/2022,01:19:29,-0.001,0.0,0.0,0.0
10/11/2022,01:20:30,0.000,0.0,0.0,0.0
10/11/2022,01:21:30,0.000,0.0,0.0,0.0
10/11/2022,01:22:30,0.000,0.0,0.0,0.0
10/11/2022,01:23:30,-0.001,0.0,0.0,0.0
10/11/2022,01:24:30,0.001,0.0,0.0,0.0
10/11/2022,01:25:30,-0.000,0.0,0.0,0.0
10/11/2022,01:26:29,-0.000,0.0,0.0,0.0
10/11/2022,01:27:30,0.000,0.0,0.0,0.0
10/11/2022,01:28:30,0.000,0.0,0.0,0.0
10/11/2022,01:29:29,0.000,0.0,0.0,0.0
10/11/2022,01:30:30,0.001,0.0,0.0,0.0
10/11/2022,01:31:30,-0.000,0.0,0.0,0.0
10/11/2022,01:32:30,-0.000,0.0,0.0,0.0
10/11/2022,01:33:29,0.000,0.0,0.0,0.0
10/11/2022,01:34:30,-0.000,0.0,0.0,0.0
10/11/2022,01:35:29,-0.000,0.0,0.0,0.0
10/11/2022,01:36:30,0.000,0.0,0.0,0.0
10/11/2022,01:37:29,-0.000,0.0,0.0,0.0
10/11/2022,01:38:30,0.001,0.0,0.0,0.0
10/11/2022,01:39:29,-0.000,0.0,0.0,0.0
10/11/2022,01:40:30,0.000,0.0,0.0,0.0
10/11/2022,01:41:29,-0.000,0.0,0.0,0.0
10/11/2022,01:42:30,-0.000,0.0,0.0,0.0
10/11/2022,01:43:29,-0.001,0.0,0.0,0.0
10/11/2022,01:44:29,-0.000,0.0,0.0,0.0
10/11/2022,01:45:29,0.001,0.0,0.0,0.0
10/11/2022,01:46:29,0.000,0.0,0.0,0.0
10/11/2022,01:47:30,-0.000,0.0,0.0,0.0
10/11/2022,01:48:30,0.000,0.0,0.0,0.0
10/11/2022,01:49:30,0.001,0.0,0.0,0.0
10/11/2022,01:50:30,0.000,0.0,0.0,0.0
10/11/2022,01:51:30,0.001,0.0,0.0,0.0
10/11/2022,01:52:30,0.001,0.0,0.0,0.0
10/11/2022,01:53:30,0.001,0.0,0.0,0.0
10/11/2022,01:54:30,-0.000,0.0,0.0,0.0
10/11/2022,01:55:30,0.001,0.0,0.0,0.0
10/11/2022,01:56:30,0.000,0.0,0.0,0.0
10/11/2022,01:57:30,0.001,0.0,0.0,0.0
10/11/2022,01:58:30,-0.001,0.0,0.0,0.0
10/11/2022,01:59:30,-0.001,0.0,0.0,0.0
10/11/2022,02:00:30,-0.001,0.0,0.0,0.0
10/11/2022,02:01:30,-0.000,0.0,0.0,0.0
10/11/2022,02:02:30,0.000,0.0,0.0,0.0
10/11/2022,02:03:30,0.000,0.0,0.0,0.0
10/11/2022,02:04:30,0.000,0.0,0.0,0.0
10/11/2022,02:05:30,-0.000,0.0,0.0,0.0
10/11/2022,02:06:29,-0.000,0.0,0.0,0.0
10/11/2022,02:07:30,-0.001,0.0,0.0,0.0
10/11/2022,02:08:28,-0.000,0.0,0.0,0.0
10/11/2022,02:09:28,-0.000,0.0,0.0,0.0
10/11/2022,02:10:28,-0.001,0.0,0.0,0.0
10/11/2022,02:11:28,-0.001,0.0,0.0,0.0
10/11/2022,02:12:28,-0.000,0.0,0.0,0.0
10/11/2022,02:13:28,-0.000,0.0,0.0,0.0
10/11/2022,02:14:28,-0.000,0.0,0.0,0.0
10/11/2022,02:15:27,-0.001,0.0,0.0,0.0
10/11/2022,02:16:28,0.000,0.0,0.0,0.0
10/11/2022,02:17:28,-0.000,0.0,0.0,0.0
10/11/2022,02:18:27,-0.001,0.0,0.0,0.0
10/11/2022,02:19:28,-0.000,0.0,0.0,0.0
10/11/2022,02:20:28,-0.000,0.0,0.0,0.0
10/11/2022,02:21:28,0.000,0.0,0.0,0.0
10/11/2022,02:22:28,0.000,0.0,0.0,0.0
10/11/2022,02:23:28,-0.000,0.0,0.0,0.0
10/11/2022,02:24:28,-0.001,0.0,0.0,0.0
10/11/2022,02:25:28,0.001,0.0,0.0,0.0
10/11/2022,02:26:28,-0.000,0.0,0.0,0.0
10/11/2022,02:27:28,-0.001,0.0,0.0,0.0
10/11/2022,02:28:28,-0.001,0.0,0.0,0.0
10/11/2022,02:29:28,-0.001,0.0,0.0,0.0
10/11/2022,02:30:28,0.000,0.0,0.0,0.0
10/11/2022,02:31:28,0.000,0.0,0.0,0.0
10/11/2022,02:32:28,-0.001,0.0,0.0,0.0
10/11/2022,02:33:28,-0.001,0.0,0.0,0.0
10/11/2022,02:34:28,-0.001,0.0,0.0,0.0
10/11/2022,02:35:28,0.000,0.0,0.0,0.0
10/11/2022,02:36:29,-0.001,0.0,0.0,0.0
10/11/2022,02:37:28,0.000,0.0,0.0,0.0
10/11/2022,02:38:28,0.000,0.0,0.0,0.0
10/11/2022,02:39:28,-0.001,0.0,0.0,0.0
10/11/2022,02:40:28,0.000,0.0,0.0,0.0
10/11/2022,02:41:28,0.000,0.0,0.0,0.0
10/11/2022,02:42:28,-0.001,0.0,0.0,0.0
10/11/2022,02:43:28,-0.001,0.0,0.0,0.0
10/11/2022,02:44:28,-0.000,0.0,0.0,0.0
10/11/2022,02:45:28,-0.001,0.0,0.0,0.0
10/11/2022,02:46:28,0.001,0.0,0.0,0.0
10/11/2022,02:47:28,-0.000,0.0,0.0,0.0
10/11/2022,02:48:28,0.000,0.0,0.0,0.0
10/11/2022,02:49:28,-0.001,0.0,0.0,0.0
10/11/2022,02:50:28,-0.002,0.0,0.0,0.0
10/11/2022,02:51:28,0.001,0.0,0.0,0.0
10/11/2022,02:52:28,-0.001,0.0,0.0,0.0
10/11/2022,02:53:28,-0.001,0.0,0.0,0.0
10/11/2022,02:54:28,-0.001,0.0,0.0,0.0
10/11/2022,02:55:28,0.000,0.0,0.0,0.0
10/11/2022,02:56:28,-0.002,0.0,0.0,0.0
10/11/2022,02:57:28,-0.000,0.0,0.0,0.0
10/11/2022,02:58:28,-0.000,0.0,0.0,0.0
10/11/2022,02:59:28,-0.000,0.0,0.0,0.0
10/11/2022,03:00:28,-0.000,0.0,0.0,0.0
10/11/2022,03:01:28,-0.001,0.0,0.0,0.0
10/11/2022,03:02:28,-0.000,0.0,0.0,0.0
10/11/2022,03:03:28,-0.001,0.0,0.0,0.0
10/11/2022,03:04:28,-0.001,0.0,0.0,0.0
10/11/2022,03:05:28,-0.000,0.0,0.0,0.0
10/11/2022,03:06:28,-0.001,0.0,0.0,0.0
10/11/2022,03:07:28,-0.001,0.0,0.0,0.0
10/11/2022,03:08:28,-0.000,0.0,0.0,0.0
10/11/2022,03:09:28,-0.000,0.0,0.0,0.0
10/11/2022,03:10:28,-0.001,0.0,0.0,0.0
10/11/2022,03:11:29,-0.001,0.0,0.0,0.0
10/11/2022,03:12:28,-0.000,0.0,0.0,0.0
10/11/2022,03:13:28,-0.000,0.0,0.0,0.0
10/11/2022,03:14:28,-0.001,0.0,0.0,0.0
10/11/2022,03:15:28,-0.000,0.0,0.0,0.0
10/11/2022,03:16:28,-0.000,0.0,0.0,0.0
10/11/2022,03:17:28,-0.000,0.0,0.0,0.0
10/11/2022,03:18:28,0.000,0.0,0.0,0.0
10/11/2022,03:19:28,0.000,0.0,0.0,0.0
10/11/2022,03:20:28,0.000,0.0,0.0,0.0
10/11/2022,03:21:28,0.000,0.0,0.0,0.0
10/11/2022,03:22:28,0.000,0.0,0.0,0.0
10/11/2022,03:23:28,-0.000,0.0,0.0,0.0
10/11/2022,03:24:29,0.001,0.0,0.0,0.0
10/11/2022,03:25:28,-0.000,0.0,0.0,0.0
10/11/2022,03:26:28,-0.000,0.0,0.0,0.0
10/11/2022,03:27:29,-0.000,0.0,0.0,0.0
10/11/2022,03:28:28,-0.001,0.0,0.0,0.0
10/11/2022,03:29:28,-0.000,0.0,0.0,0.0
10/11/2022,03:30:28,-0.000,0.0,0.0,0.0
10/11/2022,03:31:28,-0.002,0.0,0.0,0.0
10/11/2022,03:32:28,-0.000,0.0,0.0,0.0
10/11/2022,03:33:28,-0.000,0.0,0.0,0.0
10/11/2022,03:34:28,-0.000,0.0,0.0,0.0
10/11/2022,03:35:28,-0.000,0.0,0.0,0.0
10/11/2022,03:36:28,-0.000,0.0,0.0,0.0
10/11/2022,03:37:28,-0.002,0.0,0.0,0.0
10/11/2022,03:38:28,0.001,0.0,0.0,0.0
10/11/2022,03:39:28,-0.001,0.0,0.0,0.0
10/11/2022,03:40:28,-0.001,0.0,0.0,0.0
10/11/2022,03:41:28,0.000,0.0,0.0,0.0
10/11/2022,03:42:28,-0.001,0.0,0.0,0.0
10/11/2022,03:43:28,-0.002,0.0,0.0,0.0
10/11/2022,03:44:28,-0.002,0.0,0.0,0.0
10/11/2022,03:45:28,-0.000,0.0,0.0,0.0
10/11/2022,03:46:28,-0.000,0.0,0.0,0.0
10/11/2022,03:47:28,-0.000,0.0,0.0,0.0
10/11/2022,03:48:28,-0.001,0.0,0.0,0.0
10/11/2022,03:49:28,-0.002,0.0,0.0,0.0
10/11/2022,03:50:28,-0.002,0.0,0.0,0.0
10/11/2022,03:51:28,-0.001,0.0,0.0,0.0
10/11/2022,03:52:28,0.001,0.0,0.0,0.0
10/11/2022,03:53:28,0.001,0.0,0.0,0.0
10/11/2022,03:54:28,-0.001,0.0,0.0,0.0
10/11/2022,03:55:28,-0.001,0.0,0.0,0.0
10/11/2022,03:56:28,-0.001,0.0,0.0,0.0
10/11/2022,03:57:28,-0.001,0.0,0.0,0.0
10/11/2022,03:58:28,-0.001,0.0,0.0,0.0
10/11/2022,03:59:28,-0.000,0.0,0.0,0.0
10/11/2022,04:00:28,0.000,0.0,0.0,0.0
10/11/2022,04:01:28,-0.001,0.0,0.0,0.0
10/11/2022,04:02:28,-0.000,0.0,0.0,0.0
10/11/2022,04:03:28,-0.001,0.0,0.0,0.0
10/11/2022,04:04:28,-0.002,0.0,0.0,0.0
10/11/2022,04:05:28,-0.002,0.0,0.0,0.0
10/11/2022,04:06:29,-0.000,0.0,0.0,0.0
10/11/2022,04:07:29,-0.001,0.0,0.0,0.0
10/11/2022,04:08:28,-0.001,0.0,0.0,0.0
10/11/2022,04:09:28,-0.001,0.0,0.0,0.0
10/11/2022,04:10:28,-0.002,0.0,0.0,0.0
10/11/2022,04:11:28,-0.001,0.0,0.0,0.0
10/11/2022,04:12:29,0.000,0.0,0.0,0.0
10/11/2022,04:13:29,-0.000,0.0,0.0,0.0
10/11/2022,04:14:28,-0.001,0.0,0.0,0.0
10/11/2022,04:15:28,-0.001,0.0,0.0,0.0
10/11/2022,04:16:29,-0.002,0.0,0.0,0.0
10/11/2022,04:17:29,-0.001,0.0,0.0,0.0
10/11/2022,04:18:28,-0.002,0.0,0.0,0.0
10/11/2022,04:19:28,-0.001,0.0,0.0,0.0
10/11/2022,04:20:28,-0.001,0.0,0.0,0.0
10/11/2022,04:21:28,-0.001,0.0,0.0,0.0
10/11/2022,04:22:28,0.000,0.0,0.0,0.0
10/11/2022,04:23:28,-0.001,0.0,0.0,0.0
10/11/2022,04:24:28,-0.001,0.0,0.0,0.0
10/11/2022,04:25:29,-0.001,0.0,0.0,0.0
10/11/2022,04:26:29,-0.001,0.0,0.0,0.0
10/11/2022,04:27:28,-0.001,0.0,0.0,0.0
10/11/2022,04:28:28,-0.000,0.0,0.0,0.0
10/11/2022,04:29:28,-0.001,0.0,0.0,0.0
10/11/2022,04:30:28,-0.001,0.0,0.0,0.0
10/11/2022,04:31:28,-0.001,0.0,0.0,0.0
10/11/2022,04:32:28,-0.001,0.0,0.0,0.0
10/11/2022,04:33:28,-0.002,0.0,0.0,0.0
10/11/2022,04:34:28,-0.001,0.0,0.0,0.0
10/11/2022,04:35:28,-0.001,0.0,0.0,0.0
10/11/2022,04:36:28,0.000,0.0,0.0,0.0
10/11/2022,04:37:28,-0.001,0.0,0.0,0.0
10/11/2022,04:38:28,-0.001,0.0,0.0,0.0
10/11/2022,04:39:28,-0.001,0.0,0.0,0.0
10/11/2022,04:40:28,-0.001,0.0,0.0,0.0
10/11/2022,04:41:28,-0.001,0.0,0.0,0.0
10/11/2022,04:42:28,-0.002,0.0,0.0,0.0
10/11/2022,04:43:29,-0.001,0.0,0.0,0.0
10/11/2022,04:44:28,-0.001,0.0,0.0,0.0
10/11/2022,04:45:28,-0.001,0.0,0.0,0.0
10/11/2022,04:46:28,-0.001,0.0,0.0,0.0
10/11/2022,04:47:28,-0.001,0.0,0.0,0.0
10/11/2022,04:48:29,-0.001,0.0,0.0,0.0
10/11/2022,04:49:28,-0.001,0.0,0.0,0.0
10/11/2022,04:50:28,-0.001,0.0,0.0,0.0
10/11/2022,04:51:29,-0.001,0.0,0.0,0.0
10/11/2022,04:52:28,-0.002,0.0,0.0,0.0
10/11/2022,04:53:28,-0.001,0.0,0.0,0.0
10/11/2022,04:54:29,-0.001,0.0,0.0,0.0
10/11/2022,04:55:28,-0.001,0.0,0.0,0.0
10/11/2022,04:56:28,0.000,0.0,0.0,0.0
10/11/2022,04:57:29,-0.001,0.0,0.0,0.0
10/11/2022,04:58:28,-0.002,0.0,0.0,0.0
10/11/2022,04:59:28,-0.001,0.0,0.0,0.0
10/11/2022,05:00:29,-0.001,0.0,0.0,0.0
10/11/2022,05:01:29,-0.001,0.0,0.0,0.0
10/11/2022,05:02:28,-0.001,0.0,0.0,0.0
10/11/2022,05:03:28,-0.001,0.0,0.0,0.0
10/11/2022,05:04:28,-0.001,0.0,0.0,0.0
10/11/2022,05:05:28,-0.001,0.0,0.0,0.0
10/11/2022,05:06:28,0.000,0.0,0.0,0.0
10/11/2022,05:07:28,-0.001,0.0,0.0,0.0
10/11/2022,05:08:29,-0.002,0.0,0.0,0.0
10/11/2022,05:09:28,-0.002,0.0,0.0,0.0
10/11/2022,05:10:28,-0.002,0.0,0.0,0.0
10/11/2022,05:11:28,-0.002,0.0,0.0,0.0
10/11/2022,05:12:28,0.000,0.0,0.0,0.0
10/11/2022,05:13:28,-0.001,0.0,0.0,0.0
10/11/2022,05:14:28,0.000,0.0,0.0,0.0
10/11/2022,05:15:28,-0.001,0.0,0.0,0.0
10/11/2022,05:16:28,-0.001,0.0,0.0,0.0
10/11/2022,05:17:28,-0.001,0.0,0.0,0.0
10/11/2022,05:18:29,-0.001,0.0,0.0,0.0
10/11/2022,05:19:28,-0.001,0.0,0.0,0.0
10/11/2022,05:20:28,0.000,0.0,0.0,0.0
10/11/2022,05:21:29,-0.001,0.0,0.0,0.0
10/11/2022,05:22:29,0.000,0.0,0.0,0.0
10/11/2022,05:23:28,-0.001,0.0,0.0,0.0
10/11/2022,05:24:28,-0.001,0.0,0.0,0.0
10/11/2022,05:25:29,-0.001,0.0,0.0,0.0
10/11/2022,05:26:29,-0.001,0.0,0.0,0.0
10/11/2022,05:27:28,-0.002,0.0,0.0,0.0
10/11/2022,05:28:28,-0.001,0.0,0.0,0.0
10/11/2022,05:29:28,-0.001,0.0,0.0,0.0
10/11/2022,05:30:29,-0.002,0.0,0.0,0.0
10/11/2022,05:31:28,-0.001,0.0,0.0,0.0
10/11/2022,05:32:28,-0.001,0.0,0.0,0.0
10/11/2022,05:33:28,-0.002,0.0,0.0,0.0
10/11/2022,05:34:29,-0.001,0.0,0.0,0.0
10/11/2022,05:35:29,-0.000,0.0,0.0,0.0
10/11/2022,05:36:28,-0.001,0.0,0.0,0.0
10/11/2022,05:37:28,-0.001,0.0,0.0,0.0
10/11/2022,05:38:28,-0.001,0.0,0.0,0.0
10/11/2022,05:39:29,-0.002,0.0,0.0,0.0
10/11/2022,05:40:29,-0.001,0.0,0.0,0.0
10/11/2022,05:41:28,-0.001,0.0,0.0,0.0
10/11/2022,05:42:29,-0.001,0.0,0.0,0.0
10/11/2022,05:43:29,-0.002,0.0,0.0,0.0
10/11/2022,05:44:28,-0.000,0.0,0.0,0.0
10/11/2022,05:45:29,-0.001,0.0,0.0,0.0
10/11/2022,05:46:28,0.000,0.0,0.0,0.0
10/11/2022,05:47:28,-0.001,0.0,0.0,0.0
10/11/2022,05:48:29,-0.002,0.0,0.0,0.0
10/11/2022,05:49:28,-0.001,0.0,0.0,0.0
10/11/2022,05:50:28,-0.001,0.0,0.0,0.0
10/11/2022,05:51:28,-0.001,0.0,0.0,0.0
10/11/2022,05:52:28,-0.001,0.0,0.0,0.0
10/11/2022,05:53:28,-0.001,0.0,0.0,0.0
10/11/2022,05:54:28,-0.001,0.0,0.0,0.0
10/11/2022,05:55:29,-0.001,0.0,0.0,0.0
10/11/2022,05:56:28,-0.002,0.0,0.0,0.0
10/11/2022,05:57:28,-0.001,0.0,0.0,0.0
10/11/2022,05:58:28,-0.001,0.0,0.0,0.0
10/11/2022,05:59:28,-0.001,0.0,0.0,0.0
10/11/2022,06:00:29,-0.001,0.0,0.0,0.0
10/11/2022,06:01:29,-0.001,0.0,0.0,0.0
10/11/2022,06:02:28,-0.001,0.0,0.0,0.0
10/11/2022,06:03:28,-0.001,0.0,0.0,0.0
10/11/2022,06:04:29,-0.001,0.0,0.0,0.0
10/11/2022,06:05:28,-0.002,0.0,0.0,0.0
10/11/2022,06:06:28,-0.001,0.0,0.0,0.0
10/11/2022,06:07:28,-0.001,0.0,0.0,0.0
10/11/2022,06:08:29,-0.002,0.0,0.0,0.0
10/11/2022,06:09:28,-0.001,0.0,0.0,0.0
10/11/2022,06:10:29,-0.001,0.0,0.0,0.0
10/11/2022,06:11:28,-0.001,0.0,0.0,0.0
10/11/2022,06:12:28,-0.000,0.0,0.0,0.0
10/11/2022,06:13:29,-0.001,0.0,0.0,0.0
10/11/2022,06:14:29,0.000,0.0,0.0,0.0
10/11/2022,06:15:28,-0.001,0.0,0.0,0.0
10/11/2022,06:16:29,-0.002,0.0,0.0,0.0
10/11/2022,06:17:28,-0.001,0.0,0.0,0.0
10/11/2022,06:18:28,0.000,0.0,0.0,0.0
10/11/2022,06:19:29,-0.001,0.0,0.0,0.0
10/11/2022,06:20:28,0.000,0.0,0.0,0.0
10/11/2022,06:21:29,-0.001,0.0,0.0,0.0
10/11/2022,06:22:29,-0.001,0.0,0.0,0.0
10/11/2022,06:23:28,-0.002,0.0,0.0,0.0
10/11/2022,06:24:29,-0.000,0.0,0.0,0.0
10/11/2022,06:25:29,-0.001,0.0,0.0,0.0
10/11/2022,06:26:28,-0.002,0.0,0.0,0.0
10/11/2022,06:27:28,-0.000,0.0,0.0,0.0
10/11/2022,06:28:29,-0.000,0.0,0.0,0.0
10/11/2022,06:29:29,0.000,0.0,0.0,0.0
10/11/2022,06:30:28,-0.001,0.0,0.0,0.0
10/11/2022,06:31:29,-0.001,0.0,0.0,0.0
10/11/2022,06:32:29,-0.001,0.0,0.0,0.0
10/11/2022,06:33:29,-0.001,0.0,0.0,0.0
10/11/2022,06:34:28,-0.001,0.0,0.0,0.0
10/11/2022,06:35:28,-0.000,0.0,0.0,0.0
10/11/2022,06:36:29,-0.001,0.0,0.0,0.0
10/11/2022,06:37:28,-0.001,0.0,0.0,0.0
10/11/2022,06:38:28,-0.000,0.0,0.0,0.0
10/11/2022,06:39:28,-0.001,0.0,0.0,0.0
10/11/2022,06:40:29,-0.001,0.0,0.0,0.0
10/11/2022,06:41:28,-0.000,0.0,0.0,0.0
10/11/2022,06:42:28,-0.002,0.0,0.0,0.0
10/11/2022,06:43:29,-0.002,0.0,0.0,0.0
10/11/2022,06:44:29,0.000,0.0,0.0,0.0
10/11/2022,06:45:29,-0.002,0.0,0.0,0.0
10/11/2022,06:46:28,-0.000,0.0,0.0,0.0
10/11/2022,06:47:29,-0.001,0.0,0.0,0.0
10/11/2022,06:48:28,-0.001,0.0,0.0,0.0
10/11/2022,06:49:29,-0.001,0.0,0.0,0.0
10/11/2022,06:50:29,-0.001,0.0,0.0,0.0
10/11/2022,06:51:28,0.000,0.0,0.0,0.0
10/11/2022,06:52:29,-0.000,0.0,0.0,0.0
10/11/2022,06:53:29,-0.001,0.0,0.0,0.0
10/11/2022,06:54:28,-0.001,0.0,0.0,0.0
10/11/2022,06:55:29,-0.001,0.0,0.0,0.0
10/11/2022,06:56:29,-0.001,0.0,0.0,0.0
10/11/2022,06:57:29,-0.001,0.0,0.0,0.0
10/11/2022,06:58:29,0.001,0.0,0.0,0.0
10/11/2022,06:59:29,-0.001,0.0,0.0,0.0
10/11/2022,07:00:28,-0.001,0.0,0.0,0.0
10/11/2022,07:01:29,0.001,0.0,0.0,0.0
10/11/2022,07:02:28,0.001,0.0,0.0,0.0
10/11/2022,07:03:28,-0.001,0.0,0.0,0.0
10/11/2022,07:04:29,-0.001,0.0,0.0,0.0
10/11/2022,07:05:29,0.001,0.0,0.0,0.0
10/11/2022,07:06:29,0.000,0.0,0.0,0.0
10/11/2022,07:07:28,-0.001,0.0,0.0,0.0
10/11/2022,07:08:28,-0.001,0.0,0.0,0.0
10/11/2022,07:09:28,-0.001,0.0,0.0,0.0
10/11/2022,07:10:29,-0.000,0.0,0.0,0.0
10/11/2022,07:11:28,0.001,0.0,0.0,0.0
10/11/2022,07:12:28,0.000,0.0,0.0,0.0
10/11/2022,07:13:29,-0.001,0.0,0.0,0.0
10/11/2022,07:14:29,-0.000,0.0,0.0,0.0
10/11/2022,07:15:29,0.000,0.0,0.0,0.0
10/11/2022,07:16:29,0.000,0.0,0.0,0.0
10/11/2022,07:17:28,0.000,0.0,0.0,0.0
10/11/2022,07:18:28,0.001,0.0,0.0,0.0
10/11/2022,07:19:29,0.001,0.0,0.0,0.0
10/11/2022,07:20:29,0.000,0.0,0.0,0.0
10/11/2022,07:21:28,0.001,0.0,0.0,0.0
10/11/2022,07:22:28,0.001,0.0,0.0,0.0
10/11/2022,07:23:29,0.002,0.0,0.0,0.0
10/11/2022,07:24:28,0.001,0.0,0.0,0.0
10/11/2022,07:25:29,0.001,0.0,0.0,0.0
10/11/2022,07:26:28,0.002,0.0,0.0,0.0
10/11/2022,07:27:29,0.001,0.0,0.0,0.0
10/11/2022,07:28:29,0.002,0.0,0.0,0.0
10/11/2022,07:29:28,0.002,0.0,0.0,0.0
10/11/2022,07:30:29,0.002,0.0,0.0,0.0
10/11/2022,07:31:29,0.002,0.0,0.0,0.0
10/11/2022,07:32:29,0.002,0.0,0.0,0.0
10/11/2022,07:33:29,0.002,0.0,0.0,0.0
10/11/2022,07:34:28,0.002,0.0,0.0,0.0
10/11/2022,07:35:28,0.004,0.0,0.0,0.0
10/11/2022,07:36:29,0.003,0.0,0.0,0.0
10/11/2022,07:37:28,0.004,0.0,0.0,0.0
10/11/2022,07:38:28,0.004,0.0,0.0,0.0
10/11/2022,07:39:28,0.004,0.0,0.0,0.0
10/11/2022,07:40:28,0.005,0.0,0.0,0.0
10/11/2022,07:41:28,0.005,0.0,0.0,0.0
10/11/2022,07:42:29,0.004,0.0,0.0,0.0
10/11/2022,07:43:28,0.005,0.0,0.0,0.0
10/11/2022,07:44:28,0.006,0.0,0.0,0.0
10/11/2022,07:45:29,0.006,0.0,0.0,0.0
10/11/2022,07:46:28,0.007,0.0,0.0,0.0
10/11/2022,07:47:28,0.007,0.0,0.0,0.0
10/11/2022,07:48:28,0.006,0.0,0.0,0.0
10/11/2022,07:49:29,0.008,0.0,0.0,0.0
10/11/2022,07:50:29,0.007,0.0,0.001,0.001
10/11/2022,07:51:28,0.008,0.0,0.001,0.0
10/11/2022,07:52:29,0.010,0.0,0.001,0.0
10/11/2022,07:53:29,0.008,0.0,0.001,0.0
10/11/2022,07:54:28,0.009,0.0,0.001,0.0
10/11/2022,07:55:29,0.010,0.0,0.001,0.0
10/11/2022,07:56:29,0.012,0.0,0.001,0.0
10/11/2022,07:57:28,0.013,0.0,0.002,0.001
10/11/2022,07:58:29,0.014,0.0,0.002,0.0
10/11/2022,07:59:28,0.013,0.0,0.002,0.0
10/11/2022,08:00:28,0.014,0.0,0.002,0.0
10/11/2022,08:01:29,0.015,0.0,0.003,0.001
10/11/2022,08:02:28,0.017,0.0,0.003,0.0
10/11/2022,08:03:29,0.019,0.0,0.003,0.0
10/11/2022,08:04:28,0.020,0.0,0.003,0.0
10/11/2022,08:05:29,0.020,0.0,0.004,0.001
10/11/2022,08:06:29,0.019,0.0,0.004,0.0
10/11/2022,08:07:28,0.021,0.0,0.004,0.0
10/11/2022,08:08:29,0.021,0.0,0.005,0.001
10/11/2022,08:09:29,0.022,0.0,0.005,0.0
10/11/2022,08:10:29,0.022,0.0,0.005,0.0
10/11/2022,08:11:29,0.022,0.0,0.006,0.001
10/11/2022,08:12:28,0.021,0.0,0.006,0.0
10/11/2022,08:13:29,0.022,0.0,0.007,0.001
10/11/2022,08:14:29,0.023,0.0,0.007,0.0
10/11/2022,08:15:29,0.023,0.0,0.007,0.0
10/11/2022,08:16:29,0.023,0.0,0.008,0.001
10/11/2022,08:17:28,0.024,0.0,0.008,0.0
10/11/2022,08:18:29,0.026,0.0,0.009,0.001
10/11/2022,08:19:29,0.030,0.0,0.009,0.0
10/11/2022,08:20:28,0.033,0.0,0.01,0.001
10/11/2022,08:21:29,0.035,0.0,0.01,0.0
10/11/2022,08:22:29,0.038,0.0,0.011,0.001
10/11/2022,08:23:28,0.039,0.0,0.011,0.0
10/11/2022,08:24:29,0.041,0.0,0.012,0.001
10/11/2022,08:25:29,0.041,0.0,0.013,0.001
10/11/2022,08:26:28,0.042,0.0,0.013,0.0
10/11/2022,08:27:28,0.043,0.0,0.014,0.001
10/11/2022,08:28:29,0.041,0.0,0.015,0.001
10/11/2022,08:29:28,0.038,0.0,0.015,0.0
10/11/2022,08:30:28,0.036,0.0,0.016,0.001
10/11/2022,08:31:28,0.033,0.0,0.017,0.001
10/11/2022,08:32:29,0.034,0.0,0.017,0.0
10/11/2022,08:33:29,0.037,0.0,0.018,0.001
10/11/2022,08:34:28,0.038,0.0,0.018,0.0
10/11/2022,08:35:28,0.043,0.0,0.019,0.001
10/11/2022,08:36:29,0.046,0.0,0.02,0.001
10/11/2022,08:37:28,0.047,0.0,0.021,0.001
10/11/2022,08:38:28,0.044,0.0,0.021,0.0
10/11/2022,08:39:28,0.044,0.0,0.022,0.001
10/11/2022,08:40:29,0.042,0.0,0.023,0.001
10/11/2022,08:41:29,0.043,0.0,0.023,0.0
10/11/2022,08:42:29,0.046,0.0,0.024,0.001
10/11/2022,08:43:29,0.044,0.0,0.025,0.001
10/11/2022,08:44:28,0.043,0.0,0.026,0.001
10/11/2022,08:45:29,0.045,0.0,0.026,0.0
10/11/2022,08:46:29,0.049,0.0,0.027,0.001
10/11/2022,08:47:28,0.046,0.0,0.028,0.001
10/11/2022,08:48:29,0.044,0.0,0.029,0.001
10/11/2022,08:49:29,0.051,0.0,0.029,0.0
10/11/2022,08:50:28,0.056,0.0,0.03,0.001
10/11/2022,08:51:28,0.054,0.0,0.031,0.001
10/11/2022,08:52:28,0.053,0.0,0.032,0.001
10/11/2022,08:53:28,0.056,0.0,0.033,0.001
10/11/2022,08:54:29,0.059,0.0,0.034,0.001
10/11/2022,08:55:29,0.061,0.0,0.035,0.001
10/11/2022,08:56:29,0.059,0.0,0.036,0.001
10/11/2022,08:57:28,0.055,0.0,0.037,0.001
10/11/2022,08:58:29,0.054,0.0,0.038,0.001
10/11/2022,08:59:29,0.053,0.0,0.039,0.001
10/11/2022,09:00:28,0.054,0.0,0.04,0.001
10/11/2022,09:01:29,0.052,0.0,0.041,0.001
10/11/2022,09:02:29,0.050,0.0,0.041,0.0
10/11/2022,09:03:29,0.051,0.0,0.042,0.001
10/11/2022,09:04:29,0.046,0.0,0.043,0.001
10/11/2022,09:05:29,0.044,0.0,0.044,0.001
10/11/2022,09:06:28,0.052,0.0,0.045,0.001
10/11/2022,09:07:29,0.057,0.0,0.046,0.001
10/11/2022,09:08:29,0.049,0.0,0.046,0.0
10/11/2022,09:09:29,0.057,0.0,0.047,0.001
10/11/2022,09:10:28,0.058,0.0,0.048,0.001
10/11/2022,09:11:28,0.059,0.0,0.049,0.001
10/11/2022,09:12:29,0.062,0.0,0.05,0.001
10/11/2022,09:13:29,0.066,0.0,0.051,0.001
10/11/2022,09:14:29,0.067,0.0,0.052,0.001
10/11/2022,09:15:28,0.069,0.0,0.054,0.002
10/11/2022,09:16:28,0.075,0.0,0.055,0.001
10/11/2022,09:17:29,0.075,0.0,0.056,0.001
10/11/2022,09:18:29,0.071,0.0,0.057,0.001
10/11/2022,09:19:28,0.076,0.0,0.058,0.001
10/11/2022,09:20:29,0.080,0.0,0.06,0.002
10/11/2022,09:21:29,0.082,0.0,0.061,0.001
10/11/2022,09:22:29,0.090,0.0,0.062,0.001
10/11/2022,09:23:28,0.090,0.0,0.064,0.002
10/11/2022,09:24:29,0.096,0.0,0.066,0.002
10/11/2022,09:25:29,0.105,0.0,0.067,0.001
10/11/2022,09:26:29,0.109,0.0,0.069,0.002
10/11/2022,09:27:29,0.105,0.0,0.071,0.002
10/11/2022,09:28:29,0.100,0.0,0.073,0.002
10/11/2022,09:55:10,0.116,0.0,0.12,0.047
10/11/2022,09:56:34,0.117,0.0,0.123,0.003
10/11/2022,09:58:31,0.120,0.0,0.127,0.004
10/11/2022,09:59:30,0.131,0.0,0.129,0.002
10/11/2022,10:00:31,0.128,0.0,0.131,0.002
10/11/2022,10:01:31,0.124,0.0,0.133,0.002
10/11/2022,10:02:30,0.135,0.0,0.135,0.002
10/11/2022,10:03:31,0.143,0.0,0.137,0.002
10/11/2022,10:04:31,0.133,0.0,0.14,0.003
10/11/2022,10:05:31,0.119,0.0,0.142,0.002
10/11/2022,10:06:31,0.117,0.0,0.144,0.002
10/11/2022,10:07:30,0.122,0.0,0.146,0.002
10/11/2022,10:08:31,0.125,0.0,0.148,0.002
10/11/2022,10:09:31,0.126,0.0,0.15,0.002
10/11/2022,10:10:31,0.124,0.0,0.152,0.002
10/11/2022,10:11:30,0.117,0.0,0.154,0.002
10/11/2022,10:12:30,0.118,0.0,0.156,0.002
10/11/2022,10:13:30,0.120,0.0,0.158,0.002
10/11/2022,10:14:30,0.122,0.0,0.16,0.002
10/11/2022,10:15:31,0.121,0.0,0.162,0.002
10/11/2022,10:16:31,0.115,0.0,0.164,0.002
10/11/2022,10:17:31,0.113,0.0,0.166,0.002
10/11/2022,10:18:31,0.108,0.0,0.168,0.002
10/11/2022,10:19:30,0.104,0.0,0.169,0.001
10/11/2022,10:20:31,0.104,0.0,0.171,0.002
10/11/2022,10:21:31,0.102,0.0,0.173,0.002
10/11/2022,10:22:30,0.095,0.0,0.174,0.001
10/11/2022,10:23:30,0.089,0.0,0.176,0.002
10/11/2022,10:24:30,0.091,0.0,0.178,0.002
10/11/2022,10:25:30,0.101,0.0,0.179,0.001
10/11/2022,10:26:31,0.102,0.0,0.181,0.002
10/11/2022,10:27:31,0.097,0.0,0.182,0.001
10/11/2022,10:28:30,0.086,0.0,0.184,0.002
10/11/2022,10:29:31,0.084,0.0,0.185,0.001
10/11/2022,10:30:31,0.082,0.0,0.187,0.002
10/11/2022,10:31:30,0.096,0.0,0.188,0.001
10/11/2022,10:32:31,0.099,0.0,0.19,0.002
10/11/2022,10:33:31,0.099,0.0,0.192,0.002
10/11/2022,10:34:30,0.107,0.0,0.193,0.001
10/11/2022,10:35:30,0.112,0.0,0.195,0.002
10/11/2022,10:36:31,0.117,0.0,0.197,0.002